Вернуться в каталог

FREGAT DEB

АктивенUNKNOWN
NORAD 45823·DEBRIS·🇷🇺 Russia

Запущен Jul 18, 2011 с Baikonur Cosmodrome

Loading…

Ближайшие Пролёты (ближайшие 24 часа)

TLE

СвежийSource: Space-Track

Эпоха: Sep 14, 2026, 02:41 UTC

1 45823U 11037BH  26257.11246211  .00000594  00000-0  15014-3 0  9996
2 45823  51.4374 289.6565 1873690 144.7696 229.2811 11.33538250259057

Отслеживайте FREGAT DEB в реальном времени с AllMySat

Download on the App Store